Regional Weather Roundup
Issued by NWS State College, PA

Home | Current Version | Previous Version | Graphics & Text | Print | Product List | Glossary On
Versions: 1 2 3 4 5 6 7 8 9 10 11 12 13 14 15 16 17 18 19 20 21 22 23 24 25 26 27 28 29 30 31 32 33 34 35 36 37 38 39 40 41 42 43 44 45 46 47 48 49 50
000
ASUS41 KCTP 230710
RWRCTP

REGIONAL WEATHER ROUNDUP
NATIONAL WEATHER SERVICE STATE COLLEGE PA
200 AM EST FRI FEB 23 2018

Note: "fair" indicates few or no clouds below 12,000 feet with no
significant weather and/or obstructions to visibility.

* = STATION THAT DOES NOT REPORT PRECIPITATION /E.G. RAIN...SNOW...ETC/
    THUNDER OR FOG.

PAZ002>004-007>009-013>016-020>023-029>032-230800-
WESTERN PENNSYLVANIA

CITY           SKY/WX    TMP DP  RH WIND       PRES   REMARKS
ERIE           CLOUDY    35  32  88 NE7       30.44F
MEADVILLE      CLOUDY    38  37  97 VRB6      30.39F
FRANKLIN*      CLOUDY    38  36  92 SE13      30.42S
NEW CASTLE     CLOUDY    41  40  96 SE3       30.42F
BEAVER COUNTY  NOT AVBL
BUTLER*        CLOUDY    40  38  93 E6        30.41F
PITTSBURGH INT CLOUDY    41  40  96 E6        30.39F
PITTSBURGH     CLOUDY    41  37  86 E5        30.38F
INDIANA*       CLOUDY    41  37  87 SE8       30.47S
LATROBE        LGT RAIN  43  39  87 E7        30.42S
WASHINGTON CO* CLOUDY    41  40  96 CALM      30.42F
$$

PAZ004>006-010>012-017>019-024>028-033>037-041-042-045-046-049>053-230800-
CENTRAL PENNSYLVANIA

CITY           SKY/WX    TMP DP  RH WIND       PRES   REMARKS
BRADFORD       CLOUDY    34  33  96 SE12      30.44F FOG
DUBOIS         CLOUDY    36  34  92 SE16G22   30.43S FOG
CLEARFIELD     CLOUDY    37  36  96 VRB3      30.49F
JOHNSTOWN      CLOUDY    36  33  89 SE10      30.44F
ALTOONA        LGT RAIN  37  36  96 SE5       30.52F
STATE COLLEGE  CLOUDY    36  35  96 E5        30.53F
WILLIAMSPORT   CLOUDY    38  36  92 E8        30.58F
SELINSGROVE    CLOUDY    38  35  89 CALM      30.60S
FT INDIANTOWN  CLOUDY    36  36 100 NE5       30.60F FOG
CAPITAL CITY   CLOUDY    40  37  89 E7        30.61R
HARRISBURG     CLOUDY    39  35  86 E10       30.60F
YORK           CLOUDY    39  38  96 E7        30.60R
$$

PAZ038>040-043-044-047-048-054-055-060>062-067>071-230800-
EASTERN PENNSYLVANIA

CITY           SKY/WX    TMP DP  RH WIND       PRES   REMARKS
SCRANTON       CLOUDY    36  32  85 CALM      30.58F
MOUNT POCONO   CLOUDY    29  29 100 E7        30.55F
ALLENTOWN      CLOUDY    37  32  82 E10       30.62F
QUAKERTOWN*    CLOUDY    37  36  93 NE8       30.62F
READING        CLOUDY    38  37  97 CALM      30.61S
LANCASTER      CLOUDY    38  36  92 E13       30.58F
COATESVILLE    CLOUDY    36  36 100 E14       30.61S FOG
POTTSTOWN      CLOUDY    37  36  96 E6        30.64S
BLUE BELL      CLOUDY    36  36 100 E5        30.66R
DOYLESTOWN     CLOUDY    37  35  92 NE7       30.63S
WILLOW GROVE   NOT AVBL
NORTH PHILA    CLOUDY    41  36  82 E8        30.66R
PHILADELPHIA   CLOUDY    39  36  89 NE10      30.64R
$$



USA.gov is the U.S. government's official web portal to all federal, state and local government web resources and services.